CZ-3C DEB, 40175

Orbit data source: Space-Track

CZ-3C DEB, 40175 is space debris in HEO originally from a launch on Sun, 31 Oct 2010 UTC launched from the Xichang Space Center, China (XSC). Debris objects in space refer to the collection of defunct objects orbiting the Earth. Examples of debris include non-operational satellites, rocket bodies, and fragments generated from explosions, collisions, or faulty payload assembly.

Loading next visibility...
Identifier
40175, 2010-057AD
Orbit
HEO
Country
Flag of CNCN / PRC
Related business
Manufacturer
CALT
Mission
Spacecraft
Bus & Motor
Unknown
Mass
Unknown
Launch date (UTC)
2010-10-31 (15 years ago)
Launch vehicle
Unknown
Launch site
Xichang Space Center, China (XSC)
Object type
Payload
Rocket body
Debris
Shape & HBR
Unknown shape, 0.1 m
Radar Cross Section
Medium (>0.1 m² and <1 m²)

Expand to show TLE details & history
Last TLE update: 4 months ago

TLE from 4 months ago
0 CZ-3C DEB
1 40175U 10057AD  25363.27742059  .00000908  00000-0  19949-2 0  9996
2 40175  19.3556 236.0563 7081033 237.8043  34.7367  2.45407302  1842
Epoch: 2025-12-29T06:39Z
TLE epoch observation values (Epoch: 2025-12-29T06:39:29.138Z)
Latitude
0.00017°
Longitude
38.3049°
Altitude
12,242.62 km
Speed
5.064 km/s
True Right ascension
15h 44m 36s
True Declination
0° 00' 01"
Sunlit
Object was in daylight at epoch
Visualization orbit readout
Latitude
Unknown
Longitude
Unknown
Altitude
Unknown
Speed
Unknown
Apparent Right ascension
Unknown
Apparent Declination
Unknown
Sunlit
N/A
Visualization observer readout
Local Sidereal Time
04:21:42
Azimuth
Unknown
Elevation
Unknown
Doppler factor
Unknown
Orbital elements
Apogee altitude
33,286.983 km
Perigee altitude
400.21 km
Semi-major axis
23,221.734 km
Eccentricity
0.7081
Inclination
19.3556°
RAAN
236.0563°
Arg. of periapsis
237.8043°
True anomaly
122.21428°
Mean anomaly
34.7367°
Eccentric anomaly
73.67164°
Mean motion
0.61334 °/min
Orbital period
586.95 mins
BSTAR
0.0019949
Loading maneuver chart data...
Computing Atmospheric mass density...
Loading historical data...
Loading historical data...
Loading historical data...
Loading historical data...
Loading historical data...
Loading historical data...
Loading historical data...

Documentation

Showing up to 5 results
|